User: anonymous   Login
Location: Unspecified
(0.0000°N, 0.0000°E)
Time: 23:52:54
(UTC+00:00)
Language:

STARLINK-32791 - Orbit

View from above orbital plane
View from above orbital plane
View from above satellite
View from above satellite

Ground track
Ground track

The orbit is defined by the following mean orbital elements,

1 62530U          26145.48048772 +.00000000 +00000-0 +56064-3 0 00001
2 62530  43.0007 146.1171 0002271 269.6978  90.3614 15.27589458    09
Epoch (UTC): 25 May 2026 11:31:54
Eccentricity: 0.0002271
inclination: 43.0007°
perigee height: 481 km
apogee height: 485 km
right ascension of ascending node: 146.1171°
argument of perigee: 269.6978°
revolutions per day: 15.27589458
mean anomaly at epoch: 90.3614°

The dashed part of the orbit path shows where the satellite is in the earth's shadow,  

DLR